Time,TemperatureF,DewpointF,PressureIn,WindDirection,WindDirectionDegrees,WindSpeedMPH,WindSpeedGustMPH,Humidity,HourlyPrecipIn,Conditions,Clouds,dailyrainin,SoftwareType,DateUTC
2013-05-02 00:00:00,46.7,38.6,30.42,SSE,161,0.0,0.0,73,0.00,,,0.00,WUHU216DAVISVP2,2013-05-02 04:00:00,
2013-05-02 00:01:00,46.6,38.5,30.42,SSE,161,0.0,0.0,73,0.00,,,0.00,WUHU216DAVISVP2,2013-05-02 04:01:00,
2013-05-02 00:06:00,46.3,38.5,30.42,SSE,161,0.0,0.0,74,0.00,,,0.00,WUHU216DAVISVP2,2013-05-02 04:06:00,
2013-05-02 00:11:00,46.1,39.0,30.42,SSE,161,0.0,0.0,76,0.00,,,0.00,WUHU216DAVISVP2,2013-05-02 04:11:00,
2013-05-02 00:16:00,45.9,39.5,30.42,SSE,161,0.0,0.0,78,0.00,,,0.00,WUHU216DAVISVP2,2013-05-02 04:16:00,
2013-05-02 00:21:00,45.7,39.3,30.42,SSE,161,0.0,0.0,78,0.00,,,0.00,WUHU216DAVISVP2,2013-05-02 04:21:00,
2013-05-02 00:26:00,45.5,38.8,30.41,SSE,161,0.0,0.0,77,0.00,,,0.00,WUHU216DAVISVP2,2013-05-02 04:26:00,
2013-05-02 00:31:00,45.3,38.6,30.41,SSE,161,0.0,0.0,77,0.00,,,0.00,WUHU216DAVISVP2,2013-05-02 04:31:00,
2013-05-02 00:36:00,45.1,38.4,30.41,SSE,161,0.0,0.0,77,0.00,,,0.00,WUHU216DAVISVP2,2013-05-02 04:36:00,
2013-05-02 00:41:00,44.9,38.5,30.41,SSE,161,0.0,0.0,78,0.00,,,0.00,WUHU216DAVISVP2,2013-05-02 04:41:00,
2013-05-02 00:46:00,44.6,38.2,30.41,SSE,161,0.0,0.0,78,0.00,,,0.00,WUHU216DAVISVP2,2013-05-02 04:46:00,
2013-05-02 00:51:00,44.4,38.3,30.41,SSE,161,0.0,0.0,79,0.00,,,0.00,WUHU216DAVISVP2,2013-05-02 04:51:00,
2013-05-02 00:56:00,44.2,38.1,30.41,SSE,161,0.0,0.0,79,0.00,,,0.00,WUHU216DAVISVP2,2013-05-02 04:56:00,
2013-05-02 01:01:00,44.1,38.0,30.41,SSE,161,0.0,0.0,79,0.00,,,0.00,WUHU216DAVISVP2,2013-05-02 05:01:00,
2013-05-02 01:06:00,43.9,38.2,30.41,SSE,161,0.0,1.0,80,0.00,,,0.00,WUHU216DAVISVP2,2013-05-02 05:06:00,
2013-05-02 01:11:00,43.7,38.0,30.41,SSE,161,0.0,1.0,80,0.00,,,0.00,WUHU216DAVISVP2,2013-05-02 05:11:00,
2013-05-02 01:16:00,43.6,38.2,30.41,SSE,161,0.0,1.0,81,0.00,,,0.00,WUHU216DAVISVP2,2013-05-02 05:16:00,
2013-05-02 01:21:00,43.4,38.3,30.41,SSE,161,0.0,1.0,82,0.00,,,0.00,WUHU216DAVISVP2,2013-05-02 05:21:00,
2013-05-02 01:26:00,43.2,38.4,30.41,SSE,161,0.0,0.0,83,0.00,,,0.00,WUHU216DAVISVP2,2013-05-02 05:26:00,
2013-05-02 01:31:00,43.1,38.3,30.41,SSE,161,0.0,0.0,83,0.00,,,0.00,WUHU216DAVISVP2,2013-05-02 05:31:00,
2013-05-02 01:36:00,42.9,38.1,30.41,SSE,161,0.0,0.0,83,0.00,,,0.00,WUHU216DAVISVP2,2013-05-02 05:36:00,
2013-05-02 01:41:00,42.8,38.0,30.41,SSE,161,0.0,0.0,83,0.00,,,0.00,WUHU216DAVISVP2,2013-05-02 05:41:00,
2013-05-02 01:46:00,42.6,38.1,30.41,SSE,161,0.0,0.0,84,0.00,,,0.00,WUHU216DAVISVP2,2013-05-02 05:46:00,
2013-05-02 01:51:00,42.5,38.3,30.40,SSE,161,0.0,0.0,85,0.00,,,0.00,WUHU216DAVISVP2,2013-05-02 05:51:00,
2013-05-02 01:56:00,42.3,38.1,30.40,SSE,161,0.0,0.0,85,0.00,,,0.00,WUHU216DAVISVP2,2013-05-02 05:56:00,
2013-05-02 02:01:00,42.2,38.0,30.40,SSE,161,0.0,0.0,85,0.00,,,0.00,WUHU216DAVISVP2,2013-05-02 06:01:00,
2013-05-02 02:06:00,42.1,38.2,30.40,SSE,161,0.0,0.0,86,0.00,,,0.00,WUHU216DAVISVP2,2013-05-02 06:06:00,
2013-05-02 02:11:00,41.9,38.0,30.40,SSE,161,0.0,0.0,86,0.00,,,0.00,WUHU216DAVISVP2,2013-05-02 06:11:00,
2013-05-02 02:16:00,41.8,37.9,30.40,SSE,161,0.0,0.0,86,0.00,,,0.00,WUHU216DAVISVP2,2013-05-02 06:16:00,
2013-05-02 02:21:00,41.6,38.0,30.40,SSE,161,0.0,0.0,87,0.00,,,0.00,WUHU216DAVISVP2,2013-05-02 06:21:00,
2013-05-02 02:26:00,41.5,37.9,30.40,SSE,161,0.0,0.0,87,0.00,,,0.00,WUHU216DAVISVP2,2013-05-02 06:26:00,
2013-05-02 02:31:00,41.3,38.0,30.40,SSE,161,0.0,0.0,88,0.00,,,0.00,WUHU216DAVISVP2,2013-05-02 06:31:00,
2013-05-02 02:36:00,41.2,37.9,30.40,SSE,161,0.0,0.0,88,0.00,,,0.00,WUHU216DAVISVP2,2013-05-02 06:36:00,
2013-05-02 02:41:00,41.0,37.7,30.40,SSE,161,0.0,0.0,88,0.00,,,0.00,WUHU216DAVISVP2,2013-05-02 06:41:00,
2013-05-02 02:46:00,40.8,37.8,30.40,SSE,161,0.0,0.0,89,0.00,,,0.00,WUHU216DAVISVP2,2013-05-02 06:46:00,
2013-05-02 02:51:00,40.7,37.7,30.40,SSE,161,0.0,0.0,89,0.00,,,0.00,WUHU216DAVISVP2,2013-05-02 06:51:00,
2013-05-02 02:56:00,40.6,37.6,30.40,SSE,161,0.0,0.0,89,0.00,,,0.00,WUHU216DAVISVP2,2013-05-02 06:56:00,
2013-05-02 03:01:00,40.5,37.5,30.40,SSE,161,0.0,0.0,89,0.00,,,0.00,WUHU216DAVISVP2,2013-05-02 07:01:00,
2013-05-02 03:06:00,40.4,37.4,30.40,SSE,161,0.0,0.0,89,0.00,,,0.00,WUHU216DAVISVP2,2013-05-02 07:06:00,
2013-05-02 03:11:00,40.3,37.3,30.40,SSE,161,0.0,0.0,89,0.00,,,0.00,WUHU216DAVISVP2,2013-05-02 07:11:00,
2013-05-02 03:16:00,40.1,37.1,30.40,SSE,161,0.0,0.0,89,0.00,,,0.00,WUHU216DAVISVP2,2013-05-02 07:16:00,
2013-05-02 03:21:00,40.0,37.0,30.40,SSE,161,0.0,0.0,89,0.00,,,0.00,WUHU216DAVISVP2,2013-05-02 07:21:00,
2013-05-02 03:26:00,39.9,37.2,30.40,SSE,161,0.0,0.0,90,0.00,,,0.00,WUHU216DAVISVP2,2013-05-02 07:26:00,
2013-05-02 03:31:00,39.8,37.1,30.39,SSE,161,0.0,0.0,90,0.00,,,0.00,WUHU216DAVISVP2,2013-05-02 07:31:00,
2013-05-02 03:36:00,39.7,37.0,30.39,SSE,161,0.0,0.0,90,0.00,,,0.00,WUHU216DAVISVP2,2013-05-02 07:36:00,
2013-05-02 03:41:00,39.5,36.8,30.39,SSE,161,0.0,0.0,90,0.00,,,0.00,WUHU216DAVISVP2,2013-05-02 07:41:00,
2013-05-02 03:46:00,39.5,37.0,30.39,SSE,161,0.0,0.0,91,0.00,,,0.00,WUHU216DAVISVP2,2013-05-02 07:46:00,
2013-05-02 03:51:00,39.3,36.8,30.39,SSE,161,0.0,0.0,91,0.00,,,0.00,WUHU216DAVISVP2,2013-05-02 07:51:00,
2013-05-02 03:56:00,39.2,36.7,30.39,SSE,161,0.0,0.0,91,0.00,,,0.00,WUHU216DAVISVP2,2013-05-02 07:56:00,
2013-05-02 04:01:00,39.1,36.6,30.39,SSE,161,0.0,0.0,91,0.00,,,0.00,WUHU216DAVISVP2,2013-05-02 08:01:00,
2013-05-02 04:06:00,39.0,36.5,30.39,SSE,161,0.0,0.0,91,0.00,,,0.00,WUHU216DAVISVP2,2013-05-02 08:06:00,
2013-05-02 04:11:00,38.9,36.5,30.39,SSE,161,0.0,0.0,91,0.00,,,0.00,WUHU216DAVISVP2,2013-05-02 08:11:00,
2013-05-02 04:16:00,38.8,36.4,30.39,SSE,161,0.0,0.0,91,0.00,,,0.00,WUHU216DAVISVP2,2013-05-02 08:16:00,
2013-05-02 04:21:00,38.8,36.4,30.39,SSE,161,0.0,0.0,91,0.00,,,0.00,WUHU216DAVISVP2,2013-05-02 08:21:00,
2013-05-02 04:26:00,38.7,36.5,30.39,SSE,161,0.0,0.0,92,0.00,,,0.00,WUHU216DAVISVP2,2013-05-02 08:26:00,
2013-05-02 04:31:00,38.6,36.4,30.39,SSE,161,0.0,0.0,92,0.00,,,0.00,WUHU216DAVISVP2,2013-05-02 08:31:00,
2013-05-02 04:36:00,38.6,36.4,30.39,SSE,161,0.0,0.0,92,0.00,,,0.00,WUHU216DAVISVP2,2013-05-02 08:36:00,
2013-05-02 04:41:00,38.5,36.3,30.40,SSE,161,0.0,0.0,92,0.00,,,0.00,WUHU216DAVISVP2,2013-05-02 08:41:00,
2013-05-02 04:46:00,38.4,36.2,30.40,SSE,161,0.0,0.0,92,0.00,,,0.00,WUHU216DAVISVP2,2013-05-02 08:46:00,
2013-05-02 04:51:00,38.3,36.4,30.40,SSE,161,0.0,0.0,93,0.00,,,0.00,WUHU216DAVISVP2,2013-05-02 08:51:00,
2013-05-02 04:56:00,38.2,36.3,30.40,SSE,161,0.0,0.0,93,0.00,,,0.00,WUHU216DAVISVP2,2013-05-02 08:56:00,
2013-05-02 05:01:00,38.2,36.3,30.40,SSE,161,0.0,0.0,93,0.00,,,0.00,WUHU216DAVISVP2,2013-05-02 09:01:00,
2013-05-02 05:06:00,38.2,36.3,30.40,SSE,161,0.0,0.0,93,0.00,,,0.00,WUHU216DAVISVP2,2013-05-02 09:06:00,
2013-05-02 05:11:00,38.1,36.2,30.39,SSE,161,0.0,0.0,93,0.00,,,0.00,WUHU216DAVISVP2,2013-05-02 09:11:00,
2013-05-02 05:16:00,38.0,36.1,30.40,SSE,161,0.0,0.0,93,0.00,,,0.00,WUHU216DAVISVP2,2013-05-02 09:16:00,
2013-05-02 05:21:00,37.9,36.0,30.40,SSE,161,0.0,0.0,93,0.00,,,0.00,WUHU216DAVISVP2,2013-05-02 09:21:00,
2013-05-02 05:26:00,37.8,35.9,30.40,SSE,161,0.0,0.0,93,0.00,,,0.00,WUHU216DAVISVP2,2013-05-02 09:26:00,
2013-05-02 05:31:00,37.7,35.8,30.40,SSE,161,0.0,0.0,93,0.00,,,0.00,WUHU216DAVISVP2,2013-05-02 09:31:00,
2013-05-02 05:36:00,37.6,36.0,30.40,SSE,161,0.0,0.0,94,0.00,,,0.00,WUHU216DAVISVP2,2013-05-02 09:36:00,
2013-05-02 05:41:00,37.5,35.9,30.40,SSE,161,0.0,0.0,94,0.00,,,0.00,WUHU216DAVISVP2,2013-05-02 09:41:00,
2013-05-02 05:46:00,37.5,35.9,30.40,SSE,161,0.0,0.0,94,0.00,,,0.00,WUHU216DAVISVP2,2013-05-02 09:46:00,
2013-05-02 05:51:00,37.4,35.8,30.40,SSE,161,0.0,0.0,94,0.00,,,0.00,WUHU216DAVISVP2,2013-05-02 09:51:00,
2013-05-02 05:56:00,37.3,35.7,30.40,SSE,161,0.0,0.0,94,0.00,,,0.00,WUHU216DAVISVP2,2013-05-02 09:56:00,
2013-05-02 06:01:00,37.3,35.7,30.40,SSE,161,0.0,0.0,94,0.00,,,0.00,WUHU216DAVISVP2,2013-05-02 10:01:00,
2013-05-02 06:06:00,37.3,35.7,30.40,SSE,161,0.0,0.0,94,0.00,,,0.00,WUHU216DAVISVP2,2013-05-02 10:06:00,
2013-05-02 06:11:00,37.3,35.7,30.40,SSE,161,0.0,0.0,94,0.00,,,0.00,WUHU216DAVISVP2,2013-05-02 10:11:00,
2013-05-02 06:16:00,37.4,35.8,30.40,SSE,161,0.0,0.0,94,0.00,,,0.00,WUHU216DAVISVP2,2013-05-02 10:16:00,
2013-05-02 06:21:00,37.4,36.1,30.40,SSE,161,0.0,0.0,95,0.00,,,0.00,WUHU216DAVISVP2,2013-05-02 10:21:00,
2013-05-02 06:26:00,37.5,36.2,30.40,SSE,161,0.0,0.0,95,0.00,,,0.00,WUHU216DAVISVP2,2013-05-02 10:26:00,
2013-05-02 06:31:00,37.6,36.3,30.40,SSE,161,0.0,0.0,95,0.00,,,0.00,WUHU216DAVISVP2,2013-05-02 10:31:00,
2013-05-02 06:36:00,37.7,36.4,30.40,SSE,161,0.0,0.0,95,0.00,,,0.00,WUHU216DAVISVP2,2013-05-02 10:36:00,
2013-05-02 06:41:00,37.9,36.6,30.40,SSE,161,0.0,0.0,95,0.00,,,0.00,WUHU216DAVISVP2,2013-05-02 10:41:00,
2013-05-02 06:46:00,38.2,36.9,30.40,SSE,161,0.0,0.0,95,0.00,,,0.00,WUHU216DAVISVP2,2013-05-02 10:46:00,
2013-05-02 06:51:00,38.4,37.1,30.41,SSE,161,0.0,0.0,95,0.00,,,0.00,WUHU216DAVISVP2,2013-05-02 10:51:00,
2013-05-02 06:56:00,38.8,37.5,30.41,SSE,161,0.0,0.0,95,0.00,,,0.00,WUHU216DAVISVP2,2013-05-02 10:56:00,
2013-05-02 07:01:00,39.3,38.0,30.41,SSE,161,0.0,0.0,95,0.00,,,0.00,WUHU216DAVISVP2,2013-05-02 11:01:00,
2013-05-02 07:06:00,39.9,38.6,30.41,SSE,161,0.0,0.0,95,0.00,,,0.00,WUHU216DAVISVP2,2013-05-02 11:06:00,
2013-05-02 07:11:00,40.4,38.8,30.41,SSE,161,0.0,0.0,94,0.00,,,0.00,WUHU216DAVISVP2,2013-05-02 11:11:00,
2013-05-02 07:16:00,41.0,39.4,30.41,SSE,161,0.0,0.0,94,0.00,,,0.00,WUHU216DAVISVP2,2013-05-02 11:16:00,
2013-05-02 07:21:00,41.6,40.0,30.41,SSE,161,0.0,0.0,94,0.00,,,0.00,WUHU216DAVISVP2,2013-05-02 11:21:00,
2013-05-02 07:26:00,42.3,40.4,30.41,SSE,161,0.0,0.0,93,0.00,,,0.00,WUHU216DAVISVP2,2013-05-02 11:26:00,
2013-05-02 07:31:00,43.0,40.8,30.41,SSE,161,0.0,0.0,92,0.00,,,0.00,WUHU216DAVISVP2,2013-05-02 11:31:00,
2013-05-02 07:36:00,43.9,41.4,30.41,SSE,161,0.0,0.0,91,0.00,,,0.00,WUHU216DAVISVP2,2013-05-02 11:36:00,
2013-05-02 07:41:00,44.6,41.8,30.41,SSE,161,0.0,0.0,90,0.00,,,0.00,WUHU216DAVISVP2,2013-05-02 11:41:00,
2013-05-02 07:46:00,45.5,42.4,30.41,SSE,161,0.0,0.0,89,0.00,,,0.00,WUHU216DAVISVP2,2013-05-02 11:46:00,
2013-05-02 07:51:00,46.4,42.7,30.41,SSE,161,0.0,1.0,87,0.00,,,0.00,WUHU216DAVISVP2,2013-05-02 11:51:00,
2013-05-02 07:56:00,47.4,43.1,30.41,SSE,161,1.0,1.0,85,0.00,,,0.00,WUHU216DAVISVP2,2013-05-02 11:56:00,
2013-05-02 08:01:00,48.5,43.3,30.41,SSE,161,1.0,1.0,82,0.00,,,0.00,WUHU216DAVISVP2,2013-05-02 12:01:00,
2013-05-02 08:06:00,49.5,43.9,30.41,SSE,161,0.0,1.0,81,0.00,,,0.00,WUHU216DAVISVP2,2013-05-02 12:06:00,
2013-05-02 08:11:00,50.9,44.3,30.41,SSE,161,0.0,1.0,78,0.00,,,0.00,WUHU216DAVISVP2,2013-05-02 12:11:00,
2013-05-02 08:16:00,52.1,44.5,30.41,SSE,161,1.0,1.0,75,0.00,,,0.00,WUHU216DAVISVP2,2013-05-02 12:16:00,
2013-05-02 08:21:00,52.7,44.7,30.41,SSE,161,0.0,1.0,74,0.00,,,0.00,WUHU216DAVISVP2,2013-05-02 12:21:00,
2013-05-02 08:26:00,53.4,44.7,30.41,SSE,161,1.0,1.0,72,0.00,,,0.00,WUHU216DAVISVP2,2013-05-02 12:26:00,
2013-05-02 08:31:00,54.2,44.7,30.41,SSE,161,1.0,1.0,70,0.00,,,0.00,WUHU216DAVISVP2,2013-05-02 12:31:00,
2013-05-02 08:36:00,55.0,44.8,30.41,South,171,1.0,2.0,68,0.00,,,0.00,WUHU216DAVISVP2,2013-05-02 12:36:00,
2013-05-02 08:41:00,55.9,45.2,30.41,SSE,167,2.0,2.0,67,0.00,,,0.00,WUHU216DAVISVP2,2013-05-02 12:41:00,
2013-05-02 08:46:00,57.1,45.8,30.41,SSE,155,1.0,2.0,66,0.00,,,0.00,WUHU216DAVISVP2,2013-05-02 12:46:00,
2013-05-02 08:51:00,57.7,44.5,30.41,SSE,164,1.2,2.0,61,0.00,,,0.00,WUHU216DAVISVP2,2013-05-02 12:51:00,
2013-05-02 08:56:00,58.4,43.8,30.40,South,171,1.0,2.0,58,0.00,,,0.00,WUHU216DAVISVP2,2013-05-02 12:56:00,
2013-05-02 09:01:00,59.3,44.2,30.40,WSW,255,1.9,3.0,57,0.00,,,0.00,WUHU216DAVISVP2,2013-05-02 13:01:00,
2013-05-02 09:06:00,59.9,44.7,30.40,SSW,202,1.3,3.0,57,0.00,,,0.00,WUHU216DAVISVP2,2013-05-02 13:06:00,
2013-05-02 09:11:00,60.5,43.8,30.40,SW,219,1.1,3.0,54,0.00,,,0.00,WUHU216DAVISVP2,2013-05-02 13:11:00,
2013-05-02 09:16:00,61.1,44.9,30.39,WSW,252,0.0,3.0,55,0.00,,,0.00,WUHU216DAVISVP2,2013-05-02 13:16:00,
2013-05-02 09:21:00,61.8,44.5,30.39,WSW,251,1.2,3.0,53,0.00,,,0.00,WUHU216DAVISVP2,2013-05-02 13:21:00,
2013-05-02 09:26:00,62.6,45.8,30.39,WSW,247,0.0,3.0,54,0.00,,,0.00,WUHU216DAVISVP2,2013-05-02 13:26:00,
2013-05-02 09:31:00,63.4,45.5,30.39,WSW,245,0.0,2.0,52,0.00,,,0.00,WUHU216DAVISVP2,2013-05-02 13:31:00,
2013-05-02 09:36:00,64.1,46.2,30.39,WSW,246,1.0,2.0,52,0.00,,,0.00,WUHU216DAVISVP2,2013-05-02 13:36:00,
2013-05-02 09:41:00,64.6,45.6,30.39,WSW,250,0.0,2.0,50,0.00,,,0.00,WUHU216DAVISVP2,2013-05-02 13:41:00,
2013-05-02 09:46:00,65.3,45.7,30.39,SW,219,1.3,2.0,49,0.00,,,0.00,WUHU216DAVISVP2,2013-05-02 13:46:00,
2013-05-02 09:51:00,65.8,45.6,30.39,SW,217,1.4,2.0,48,0.00,,,0.00,WUHU216DAVISVP2,2013-05-02 13:51:00,
2013-05-02 09:56:00,66.1,45.8,30.39,SW,215,1.1,2.0,48,0.00,,,0.00,WUHU216DAVISVP2,2013-05-02 13:56:00,
2013-05-02 10:01:00,66.8,44.7,30.39,SSW,212,1.4,2.0,45,0.00,,,0.00,WUHU216DAVISVP2,2013-05-02 14:01:00,
2013-05-02 10:06:00,67.5,44.8,30.39,NE,35,1.0,3.0,44,0.00,,,0.00,WUHU216DAVISVP2,2013-05-02 14:06:00,
2013-05-02 10:11:00,68.0,44.0,30.38,WNW,285,2.3,5.0,42,0.00,,,0.00,WUHU216DAVISVP2,2013-05-02 14:11:00,
2013-05-02 10:16:00,68.3,43.6,30.38,West,281,1.7,5.0,41,0.00,,,0.00,WUHU216DAVISVP2,2013-05-02 14:16:00,
2013-05-02 10:21:00,68.5,44.4,30.38,SW,236,2.0,6.0,42,0.00,,,0.00,WUHU216DAVISVP2,2013-05-02 14:21:00,
2013-05-02 10:26:00,68.8,44.0,30.38,West,273,1.4,6.0,41,0.00,,,0.00,WUHU216DAVISVP2,2013-05-02 14:26:00,
2013-05-02 10:31:00,69.3,43.8,30.38,East,84,2.3,6.0,40,0.00,,,0.00,WUHU216DAVISVP2,2013-05-02 14:31:00,
2013-05-02 10:36:00,69.8,44.3,30.38,NE,46,1.3,6.0,40,0.00,,,0.00,WUHU216DAVISVP2,2013-05-02 14:36:00,
2013-05-02 10:41:00,70.6,43.6,30.37,NE,46,1.0,4.0,38,0.00,,,0.00,WUHU216DAVISVP2,2013-05-02 14:41:00,
2013-05-02 10:46:00,71.5,43.0,30.37,ESE,110,1.9,4.0,36,0.00,,,0.00,WUHU216DAVISVP2,2013-05-02 14:46:00,
2013-05-02 10:51:00,72.1,42.8,30.37,ESE,122,1.4,3.0,35,0.00,,,0.00,WUHU216DAVISVP2,2013-05-02 14:51:00,
2013-05-02 10:56:00,72.6,44.0,30.37,WSW,246,3.0,3.0,36,0.00,,,0.00,WUHU216DAVISVP2,2013-05-02 14:56:00,
2013-05-02 11:01:00,72.7,41.0,30.37,North,354,1.6,4.0,32,0.00,,,0.00,WUHU216DAVISVP2,2013-05-02 15:01:00,
2013-05-02 11:06:00,73.0,42.0,30.36,West,271,3.0,4.0,33,0.00,,,0.00,WUHU216DAVISVP2,2013-05-02 15:06:00,
2013-05-02 11:11:00,73.3,39.8,30.36,NW,304,1.4,4.0,30,0.00,,,0.00,WUHU216DAVISVP2,2013-05-02 15:11:00,
2013-05-02 11:16:00,73.5,39.1,30.36,SW,225,3.0,4.0,29,0.00,,,0.00,WUHU216DAVISVP2,2013-05-02 15:16:00,
2013-05-02 11:21:00,73.7,39.3,30.36,WNW,286,2.6,4.0,29,0.00,,,0.00,WUHU216DAVISVP2,2013-05-02 15:21:00,
2013-05-02 11:26:00,74.1,39.6,30.36,SSW,206,1.3,4.0,29,0.00,,,0.00,WUHU216DAVISVP2,2013-05-02 15:26:00,
2013-05-02 11:31:00,74.7,39.3,30.36,NNW,328,2.5,4.0,28,0.00,,,0.00,WUHU216DAVISVP2,2013-05-02 15:31:00,
2013-05-02 11:36:00,75.2,38.8,30.36,ENE,66,1.7,4.0,27,0.00,,,0.00,WUHU216DAVISVP2,2013-05-02 15:36:00,
2013-05-02 11:41:00,75.8,40.2,30.35,West,259,2.0,5.0,28,0.00,,,0.00,WUHU216DAVISVP2,2013-05-02 15:41:00,
2013-05-02 11:46:00,75.9,39.4,30.35,WSW,240,2.3,6.0,27,0.00,,,0.00,WUHU216DAVISVP2,2013-05-02 15:46:00,
2013-05-02 11:51:00,76.5,39.9,30.34,SSW,198,0.0,6.0,27,0.00,,,0.00,WUHU216DAVISVP2,2013-05-02 15:51:00,
2013-05-02 11:56:00,77.0,39.4,30.34,WSW,240,3.0,6.0,26,0.00,,,0.00,WUHU216DAVISVP2,2013-05-02 15:56:00,
2013-05-02 12:01:00,77.1,38.5,30.34,NW,304,1.3,6.0,25,0.00,,,0.00,WUHU216DAVISVP2,2013-05-02 16:01:00,
2013-05-02 12:06:00,77.1,40.4,30.34,SW,214,3.0,6.0,27,0.00,,,0.00,WUHU216DAVISVP2,2013-05-02 16:06:00,
2013-05-02 12:11:00,77.2,38.5,30.34,SSW,210,2.3,7.0,25,0.00,,,0.00,WUHU216DAVISVP2,2013-05-02 16:11:00,
2013-05-02 12:16:00,77.1,40.4,30.33,NNW,334,2.0,7.0,27,0.00,,,0.00,WUHU216DAVISVP2,2013-05-02 16:16:00,
2013-05-02 12:21:00,77.6,39.9,30.33,NW,304,1.6,7.0,26,0.00,,,0.00,WUHU216DAVISVP2,2013-05-02 16:21:00,
2013-05-02 12:26:00,78.1,39.3,30.33,West,260,2.0,7.0,25,0.00,,,0.00,WUHU216DAVISVP2,2013-05-02 16:26:00,
2013-05-02 12:31:00,78.4,39.6,30.33,West,264,3.0,5.0,25,0.00,,,0.00,WUHU216DAVISVP2,2013-05-02 16:31:00,
2013-05-02 12:36:00,78.8,38.9,30.32,SSW,205,6.0,8.0,24,0.00,,,0.00,WUHU216DAVISVP2,2013-05-02 16:36:00,
2013-05-02 12:41:00,78.9,39.0,30.32,WNW,302,3.0,8.0,24,0.00,,,0.00,WUHU216DAVISVP2,2013-05-02 16:41:00,
2013-05-02 12:46:00,78.5,39.6,30.32,WSW,241,1.5,8.0,25,0.00,,,0.00,WUHU216DAVISVP2,2013-05-02 16:46:00,
2013-05-02 12:51:00,78.2,37.3,30.32,NNW,348,3.0,8.0,23,0.00,,,0.00,WUHU216DAVISVP2,2013-05-02 16:51:00,
2013-05-02 12:56:00,77.5,38.8,30.32,NE,42,4.0,6.0,25,0.00,,,0.00,WUHU216DAVISVP2,2013-05-02 16:56:00,
2013-05-02 13:01:00,77.0,37.3,30.32,NNW,341,3.0,6.0,24,0.00,,,0.00,WUHU216DAVISVP2,2013-05-02 17:01:00,
2013-05-02 13:06:00,76.7,37.1,30.32,NNW,329,2.5,6.0,24,0.00,,,0.00,WUHU216DAVISVP2,2013-05-02 17:06:00,
2013-05-02 13:11:00,76.8,38.2,30.32,North,349,1.4,5.0,25,0.00,,,0.00,WUHU216DAVISVP2,2013-05-02 17:11:00,
2013-05-02 13:16:00,77.2,38.5,30.32,North,358,1.3,5.0,25,0.00,,,0.00,WUHU216DAVISVP2,2013-05-02 17:16:00,
2013-05-02 13:21:00,77.5,39.8,30.32,SE,126,1.4,4.0,26,0.00,,,0.00,WUHU216DAVISVP2,2013-05-02 17:21:00,
2013-05-02 13:26:00,77.6,39.9,30.32,SSE,148,1.9,4.0,26,0.00,,,0.00,WUHU216DAVISVP2,2013-05-02 17:26:00,
2013-05-02 13:31:00,77.6,39.9,30.32,SE,130,2.0,4.0,26,0.00,,,0.00,WUHU216DAVISVP2,2013-05-02 17:31:00,
2013-05-02 13:36:00,77.5,39.8,30.32,SE,130,1.0,4.0,26,0.00,,,0.00,WUHU216DAVISVP2,2013-05-02 17:36:00,
2013-05-02 13:41:00,77.5,39.8,30.31,SSE,150,1.7,4.0,26,0.00,,,0.00,WUHU216DAVISVP2,2013-05-02 17:41:00,
2013-05-02 13:46:00,77.5,39.8,30.31,SE,140,2.0,6.0,26,0.00,,,0.00,WUHU216DAVISVP2,2013-05-02 17:46:00,
2013-05-02 13:51:00,78.3,39.5,30.31,ENE,60,3.4,7.0,25,0.00,,,0.00,WUHU216DAVISVP2,2013-05-02 17:51:00,
2013-05-02 13:56:00,78.7,38.8,30.31,ENE,60,3.1,7.0,24,0.00,,,0.00,WUHU216DAVISVP2,2013-05-02 17:56:00,
2013-05-02 14:01:00,78.7,39.8,30.31,North,7,1.9,7.0,25,0.00,,,0.00,WUHU216DAVISVP2,2013-05-02 18:01:00,
2013-05-02 14:06:00,79.0,40.1,30.31,SE,127,2.9,7.0,25,0.00,,,0.00,WUHU216DAVISVP2,2013-05-02 18:06:00,
2013-05-02 14:11:00,79.3,40.3,30.30,NE,48,3.0,7.0,25,0.00,,,0.00,WUHU216DAVISVP2,2013-05-02 18:11:00,
2013-05-02 14:16:00,79.2,40.2,30.30,SW,218,1.4,7.0,25,0.00,,,0.00,WUHU216DAVISVP2,2013-05-02 18:16:00,
2013-05-02 14:21:00,78.5,39.6,30.30,ENE,65,1.6,8.0,25,0.00,,,0.00,WUHU216DAVISVP2,2013-05-02 18:21:00,
2013-05-02 14:26:00,78.7,42.7,30.30,SW,235,1.5,8.0,28,0.00,,,0.00,WUHU216DAVISVP2,2013-05-02 18:26:00,
2013-05-02 14:31:00,79.2,40.2,30.30,ENE,75,3.8,10.0,25,0.00,,,0.00,WUHU216DAVISVP2,2013-05-02 18:31:00,
2013-05-02 14:36:00,79.8,39.7,30.30,North,360,6.0,10.0,24,0.00,,,0.00,WUHU216DAVISVP2,2013-05-02 18:36:00,
2013-05-02 14:41:00,80.1,40.0,30.29,ENE,73,1.4,10.0,24,0.00,,,0.00,WUHU216DAVISVP2,2013-05-02 18:41:00,
2013-05-02 14:46:00,79.8,39.7,30.29,SSE,163,1.3,10.0,24,0.00,,,0.00,WUHU216DAVISVP2,2013-05-02 18:46:00,
2013-05-02 14:51:00,79.1,40.2,30.29,ENE,60,4.0,6.0,25,0.00,,,0.00,WUHU216DAVISVP2,2013-05-02 18:51:00,
2013-05-02 14:56:00,78.5,39.6,30.30,ENE,74,3.4,7.0,25,0.00,,,0.00,WUHU216DAVISVP2,2013-05-02 18:56:00,
2013-05-02 15:01:00,77.6,42.7,30.30,ESE,108,4.6,8.0,29,0.00,,,0.00,WUHU216DAVISVP2,2013-05-02 19:01:00,
2013-05-02 15:06:00,75.8,44.5,30.30,SE,144,3.3,8.0,33,0.00,,,0.00,WUHU216DAVISVP2,2013-05-02 19:06:00,
2013-05-02 15:11:00,74.1,43.8,30.31,East,94,5.0,14.0,34,0.00,,,0.00,WUHU216DAVISVP2,2013-05-02 19:11:00,
2013-05-02 15:16:00,73.4,44.7,30.31,SE,132,2.4,14.0,36,0.00,,,0.00,WUHU216DAVISVP2,2013-05-02 19:16:00,
2013-05-02 15:21:00,73.6,44.8,30.31,SSE,155,6.0,14.0,36,0.00,,,0.00,WUHU216DAVISVP2,2013-05-02 19:21:00,
2013-05-02 15:26:00,73.3,44.6,30.32,SE,127,3.7,14.0,36,0.00,,,0.00,WUHU216DAVISVP2,2013-05-02 19:26:00,
2013-05-02 15:31:00,73.4,45.4,30.32,SSE,163,3.0,9.0,37,0.00,,,0.00,WUHU216DAVISVP2,2013-05-02 19:31:00,
2013-05-02 15:36:00,73.4,44.7,30.33,SE,133,2.8,9.0,36,0.00,,,0.00,WUHU216DAVISVP2,2013-05-02 19:36:00,
2013-05-02 15:41:00,71.7,43.9,30.33,ESE,112,2.5,8.0,37,0.00,,,0.00,WUHU216DAVISVP2,2013-05-02 19:41:00,
2013-05-02 15:46:00,70.8,43.8,30.34,SE,139,3.5,8.0,38,0.00,,,0.00,WUHU216DAVISVP2,2013-05-02 19:46:00,
2013-05-02 15:51:00,70.3,44.7,30.34,South,178,4.0,8.0,40,0.00,,,0.00,WUHU216DAVISVP2,2013-05-02 19:51:00,
2013-05-02 15:56:00,69.3,45.1,30.34,ESE,102,4.6,9.0,42,0.00,,,0.00,WUHU216DAVISVP2,2013-05-02 19:56:00,
2013-05-02 16:01:00,68.0,44.6,30.34,ESE,115,4.9,9.0,43,0.00,,,0.00,WUHU216DAVISVP2,2013-05-02 20:01:00,
2013-05-02 16:06:00,67.0,44.9,30.34,SE,126,4.0,9.0,45,0.00,,,0.00,WUHU216DAVISVP2,2013-05-02 20:06:00,
2013-05-02 16:11:00,66.1,44.7,30.35,ESE,112,4.0,9.0,46,0.00,,,0.00,WUHU216DAVISVP2,2013-05-02 20:11:00,
2013-05-02 16:16:00,65.5,44.7,30.35,NE,39,6.0,9.0,47,0.00,,,0.00,WUHU216DAVISVP2,2013-05-02 20:16:00,
2013-05-02 16:21:00,64.8,45.2,30.36,SE,144,6.0,9.0,49,0.00,,,0.00,WUHU216DAVISVP2,2013-05-02 20:21:00,
2013-05-02 16:26:00,63.3,44.4,30.36,SE,138,2.8,9.0,50,0.00,,,0.00,WUHU216DAVISVP2,2013-05-02 20:26:00,
2013-05-02 16:31:00,61.8,43.5,30.37,East,93,4.4,12.0,51,0.00,,,0.00,WUHU216DAVISVP2,2013-05-02 20:31:00,
2013-05-02 16:36:00,60.9,43.2,30.38,East,80,5.0,12.0,52,0.00,,,0.00,WUHU216DAVISVP2,2013-05-02 20:36:00,
2013-05-02 16:41:00,60.3,42.6,30.38,NE,55,5.0,12.0,52,0.00,,,0.00,WUHU216DAVISVP2,2013-05-02 20:41:00,
2013-05-02 16:46:00,59.8,41.7,30.38,ESE,121,4.2,12.0,51,0.00,,,0.00,WUHU216DAVISVP2,2013-05-02 20:46:00,
2013-05-02 16:51:00,59.2,41.1,30.38,SE,142,7.0,10.0,51,0.00,,,0.00,WUHU216DAVISVP2,2013-05-02 20:51:00,
2013-05-02 16:56:00,58.4,40.3,30.39,ENE,72,5.5,10.0,51,0.00,,,0.00,WUHU216DAVISVP2,2013-05-02 20:56:00,
2013-05-02 17:01:00,57.7,39.7,30.39,SE,126,6.0,11.0,51,0.00,,,0.00,WUHU216DAVISVP2,2013-05-02 21:01:00,
2013-05-02 17:06:00,57.3,40.3,30.40,ESE,115,3.9,11.0,53,0.00,,,0.00,WUHU216DAVISVP2,2013-05-02 21:06:00,
2013-05-02 17:11:00,56.8,40.3,30.40,ESE,107,4.0,11.0,54,0.00,,,0.00,WUHU216DAVISVP2,2013-05-02 21:11:00,
2013-05-02 17:16:00,56.6,41.1,30.40,SE,142,3.0,10.0,56,0.00,,,0.00,WUHU216DAVISVP2,2013-05-02 21:16:00,
2013-05-02 17:21:00,56.4,41.3,30.40,ESE,121,5.0,8.0,57,0.00,,,0.00,WUHU216DAVISVP2,2013-05-02 21:21:00,
2013-05-02 17:26:00,56.1,41.1,30.40,SE,132,1.7,8.0,57,0.00,,,0.00,WUHU216DAVISVP2,2013-05-02 21:26:00,
2013-05-02 17:31:00,56.0,41.4,30.41,ESE,121,3.0,6.0,58,0.00,,,0.00,WUHU216DAVISVP2,2013-05-02 21:31:00,
2013-05-02 17:36:00,55.9,41.3,30.41,NE,56,2.0,6.0,58,0.00,,,0.00,WUHU216DAVISVP2,2013-05-02 21:36:00,
2013-05-02 17:41:00,55.7,39.8,30.41,ESE,107,1.8,5.0,55,0.00,,,0.00,WUHU216DAVISVP2,2013-05-02 21:41:00,
2013-05-02 17:46:00,55.6,40.1,30.41,SSE,153,3.0,5.0,56,0.00,,,0.00,WUHU216DAVISVP2,2013-05-02 21:46:00,
2013-05-02 17:51:00,55.3,39.4,30.42,ESE,113,3.0,7.0,55,0.00,,,0.00,WUHU216DAVISVP2,2013-05-02 21:51:00,
2013-05-02 17:56:00,55.0,39.1,30.42,SE,137,2.8,7.0,55,0.00,,,0.00,WUHU216DAVISVP2,2013-05-02 21:56:00,
2013-05-02 18:01:00,54.9,39.0,30.42,SE,132,2.0,7.0,55,0.00,,,0.00,WUHU216DAVISVP2,2013-05-02 22:01:00,
2013-05-02 18:06:00,54.7,38.8,30.42,SE,144,5.0,6.0,55,0.00,,,0.00,WUHU216DAVISVP2,2013-05-02 22:06:00,
2013-05-02 18:11:00,54.5,39.1,30.42,SE,134,1.3,7.0,56,0.00,,,0.00,WUHU216DAVISVP2,2013-05-02 22:11:00,
2013-05-02 18:16:00,54.5,38.7,30.42,ESE,105,1.0,7.0,55,0.00,,,0.00,WUHU216DAVISVP2,2013-05-02 22:16:00,
2013-05-02 18:21:00,54.3,38.5,30.42,SE,132,1.6,7.0,55,0.00,,,0.00,WUHU216DAVISVP2,2013-05-02 22:21:00,
2013-05-02 18:26:00,54.1,37.8,30.42,SE,133,2.9,5.0,54,0.00,,,0.00,WUHU216DAVISVP2,2013-05-02 22:26:00,
2013-05-02 18:31:00,54.0,38.2,30.42,SSE,148,2.3,5.0,55,0.00,,,0.00,WUHU216DAVISVP2,2013-05-02 22:31:00,
2013-05-02 18:36:00,53.9,38.1,30.43,SE,142,1.4,5.0,55,0.00,,,0.00,WUHU216DAVISVP2,2013-05-02 22:36:00,
2013-05-02 18:41:00,53.9,37.6,30.43,SE,132,2.0,5.0,54,0.00,,,0.00,WUHU216DAVISVP2,2013-05-02 22:41:00,
2013-05-02 18:46:00,53.8,37.5,30.43,SSE,151,1.4,5.0,54,0.00,,,0.00,WUHU216DAVISVP2,2013-05-02 22:46:00,
2013-05-02 18:51:00,53.7,36.5,30.43,SSE,160,1.3,5.0,52,0.00,,,0.00,WUHU216DAVISVP2,2013-05-02 22:51:00,
2013-05-02 18:56:00,53.7,35.5,30.43,ESE,118,1.3,5.0,50,0.00,,,0.00,WUHU216DAVISVP2,2013-05-02 22:56:00,
2013-05-02 19:00:00,53.7,31.7,30.43,East,96,2.8,5.0,43,0.00,,,0.00,WUHU216DAVISVP2,2013-05-02 23:00:00,
2013-05-02 19:06:00,53.6,32.2,30.43,ESE,103,0.0,5.0,44,0.00,,,0.00,WUHU216DAVISVP2,2013-05-02 23:06:00,
2013-05-02 19:10:00,53.6,31.6,30.44,ENE,71,2.0,5.0,43,0.00,,,0.00,WUHU216DAVISVP2,2013-05-02 23:10:00,
2013-05-02 19:16:00,53.5,31.0,30.44,ESE,103,1.5,5.0,42,0.00,,,0.00,WUHU216DAVISVP2,2013-05-02 23:16:00,
2013-05-02 19:21:00,53.4,30.3,30.44,SE,145,1.0,4.0,41,0.00,,,0.00,WUHU216DAVISVP2,2013-05-02 23:21:00,
2013-05-02 19:25:00,53.2,30.7,30.44,ENE,72,1.6,4.0,42,0.00,,,0.00,WUHU216DAVISVP2,2013-05-02 23:25:00,
2013-05-02 19:30:00,53.1,30.0,30.45,NE,44,1.6,4.0,41,0.00,,,0.00,WUHU216DAVISVP2,2013-05-02 23:30:00,
2013-05-02 19:35:00,52.9,30.4,30.45,ENE,74,1.3,6.0,42,0.00,,,0.00,WUHU216DAVISVP2,2013-05-02 23:35:00,
2013-05-02 19:40:00,52.8,30.3,30.45,ESE,107,2.0,6.0,42,0.00,,,0.00,WUHU216DAVISVP2,2013-05-02 23:40:00,
2013-05-02 19:45:00,52.7,30.7,30.45,SE,143,1.3,6.0,43,0.00,,,0.00,WUHU216DAVISVP2,2013-05-02 23:45:00,
2013-05-02 19:50:00,52.6,31.2,30.45,ESE,112,1.3,6.0,44,0.00,,,0.00,WUHU216DAVISVP2,2013-05-02 23:50:00,
2013-05-02 19:55:00,52.4,32.1,30.45,ENE,70,1.7,5.0,46,0.00,,,0.00,WUHU216DAVISVP2,2013-05-02 23:55:00,
2013-05-02 20:00:00,52.3,31.5,30.45,SE,131,2.1,4.0,45,0.00,,,0.00,WUHU216DAVISVP2,2013-05-03 00:00:00,
2013-05-02 20:05:00,52.1,31.9,30.45,South,169,1.3,4.0,46,0.00,,,0.00,WUHU216DAVISVP2,2013-05-03 00:05:00,
2013-05-02 20:10:00,52.0,32.3,30.46,SSE,163,1.0,4.0,47,0.00,,,0.00,WUHU216DAVISVP2,2013-05-03 00:10:00,
2013-05-02 20:15:00,51.9,32.8,30.46,SSE,163,1.0,4.0,48,0.00,,,0.00,WUHU216DAVISVP2,2013-05-03 00:15:00,
2013-05-02 20:20:00,51.8,32.7,30.46,SSE,163,1.0,4.0,48,0.00,,,0.00,WUHU216DAVISVP2,2013-05-03 00:20:00,
2013-05-02 20:25:00,51.7,32.6,30.46,SSE,163,2.0,2.0,48,0.00,,,0.00,WUHU216DAVISVP2,2013-05-03 00:25:00,
2013-05-02 20:30:00,51.6,33.0,30.46,SSE,163,1.0,2.0,49,0.00,,,0.00,WUHU216DAVISVP2,2013-05-03 00:30:00,
2013-05-02 20:35:00,51.6,33.5,30.46,SSE,163,1.0,2.0,50,0.00,,,0.00,WUHU216DAVISVP2,2013-05-03 00:35:00,
2013-05-02 20:40:00,51.5,34.5,30.47,SSE,153,1.0,2.0,52,0.00,,,0.00,WUHU216DAVISVP2,2013-05-03 00:40:00,
2013-05-02 20:45:00,51.5,34.0,30.47,SSE,153,1.0,2.0,51,0.00,,,0.00,WUHU216DAVISVP2,2013-05-03 00:45:00,
2013-05-02 20:50:00,51.5,34.0,30.46,SSE,153,0.0,2.0,51,0.00,,,0.00,WUHU216DAVISVP2,2013-05-03 00:50:00,
2013-05-02 20:55:00,51.4,34.4,30.47,SSE,153,0.0,2.0,52,0.00,,,0.00,WUHU216DAVISVP2,2013-05-03 00:55:00,
2013-05-02 21:00:00,51.4,34.9,30.47,SSE,153,0.0,2.0,53,0.00,,,0.00,WUHU216DAVISVP2,2013-05-03 01:00:00,
2013-05-02 21:05:00,51.4,34.4,30.47,SSE,153,0.0,0.0,52,0.00,,,0.00,WUHU216DAVISVP2,2013-05-03 01:05:00,
2013-05-02 21:10:00,51.4,34.3,30.47,SSE,153,0.0,0.0,52,0.00,,,0.00,WUHU216DAVISVP2,2013-05-03 01:10:00,
2013-05-02 21:15:00,51.3,35.2,30.47,SSE,153,0.0,0.0,54,0.00,,,0.00,WUHU216DAVISVP2,2013-05-03 01:15:00,
2013-05-02 21:20:00,51.3,35.7,30.47,SSE,153,0.0,0.0,55,0.00,,,0.00,WUHU216DAVISVP2,2013-05-03 01:20:00,
2013-05-02 21:25:00,51.2,35.2,30.47,SSE,153,0.0,0.0,54,0.00,,,0.00,WUHU216DAVISVP2,2013-05-03 01:25:00,
2013-05-02 21:30:00,51.2,35.6,30.47,SSE,153,0.0,0.0,55,0.00,,,0.00,WUHU216DAVISVP2,2013-05-03 01:30:00,
2013-05-02 21:35:00,51.1,35.5,30.47,SSE,153,0.0,0.0,55,0.00,,,0.00,WUHU216DAVISVP2,2013-05-03 01:35:00,
2013-05-02 21:40:00,51.0,35.9,30.47,SSE,153,0.0,0.0,56,0.00,,,0.00,WUHU216DAVISVP2,2013-05-03 01:40:00,
2013-05-02 21:45:00,50.8,35.7,30.47,SSE,153,0.0,0.0,56,0.00,,,0.00,WUHU216DAVISVP2,2013-05-03 01:45:00,
2013-05-02 21:50:00,50.7,37.0,30.47,SSE,153,0.0,0.0,59,0.00,,,0.00,WUHU216DAVISVP2,2013-05-03 01:50:00,
2013-05-02 21:55:00,50.6,36.9,30.47,SSE,153,0.0,0.0,59,0.00,,,0.00,WUHU216DAVISVP2,2013-05-03 01:55:00,
2013-05-02 22:00:00,50.5,37.2,30.47,SSE,153,0.0,0.0,60,0.00,,,0.00,WUHU216DAVISVP2,2013-05-03 02:00:00,
2013-05-02 22:05:00,50.4,37.6,30.47,SSE,153,0.0,0.0,61,0.00,,,0.00,WUHU216DAVISVP2,2013-05-03 02:05:00,
2013-05-02 22:10:00,50.3,37.5,30.47,SSE,153,0.0,0.0,61,0.00,,,0.00,WUHU216DAVISVP2,2013-05-03 02:10:00,
2013-05-02 22:15:00,50.2,36.5,30.47,SSE,153,0.0,0.0,59,0.00,,,0.00,WUHU216DAVISVP2,2013-05-03 02:15:00,
2013-05-02 22:20:00,50.2,36.4,30.47,SSE,153,0.0,0.0,59,0.00,,,0.00,WUHU216DAVISVP2,2013-05-03 02:20:00,
2013-05-02 22:25:00,50.2,36.8,30.47,SSE,153,0.0,0.0,60,0.00,,,0.00,WUHU216DAVISVP2,2013-05-03 02:25:00,
2013-05-02 22:30:00,50.2,36.8,30.47,SSE,153,0.0,0.0,60,0.00,,,0.00,WUHU216DAVISVP2,2013-05-03 02:30:00,
2013-05-02 22:35:00,50.2,36.8,30.48,SSE,153,0.0,0.0,60,0.00,,,0.00,WUHU216DAVISVP2,2013-05-03 02:35:00,
2013-05-02 22:40:00,50.1,36.8,30.47,SSE,153,0.0,0.0,60,0.00,,,0.00,WUHU216DAVISVP2,2013-05-03 02:40:00,
2013-05-02 22:45:00,50.1,36.8,30.48,SSE,153,0.0,0.0,60,0.00,,,0.00,WUHU216DAVISVP2,2013-05-03 02:45:00,
2013-05-02 22:50:00,49.9,36.7,30.48,SSE,153,0.0,1.0,60,0.00,,,0.00,WUHU216DAVISVP2,2013-05-03 02:50:00,
2013-05-02 22:55:00,49.7,38.1,30.47,SSE,153,0.0,1.0,64,0.00,,,0.00,WUHU216DAVISVP2,2013-05-03 02:55:00,
2013-05-02 23:00:00,49.4,37.4,30.47,SSE,153,0.0,1.0,63,0.00,,,0.00,WUHU216DAVISVP2,2013-05-03 03:00:00,
2013-05-02 23:05:00,49.2,38.0,30.48,SSE,153,0.0,1.0,65,0.00,,,0.00,WUHU216DAVISVP2,2013-05-03 03:05:00,
2013-05-02 23:10:00,48.7,38.0,30.48,SSE,153,0.0,0.0,66,0.00,,,0.00,WUHU216DAVISVP2,2013-05-03 03:10:00,
2013-05-02 23:15:00,48.3,38.3,30.48,SSE,153,0.0,0.0,68,0.00,,,0.00,WUHU216DAVISVP2,2013-05-03 03:15:00,
2013-05-02 23:20:00,47.9,38.3,30.48,SSE,153,0.0,0.0,69,0.00,,,0.00,WUHU216DAVISVP2,2013-05-03 03:20:00,
2013-05-02 23:25:00,47.6,38.4,30.48,SSE,153,0.0,0.0,70,0.00,,,0.00,WUHU216DAVISVP2,2013-05-03 03:25:00,
2013-05-02 23:30:00,47.3,37.7,30.48,SSE,153,0.0,0.0,69,0.00,,,0.00,WUHU216DAVISVP2,2013-05-03 03:30:00,
2013-05-02 23:35:00,47.0,38.2,30.49,SSE,153,0.0,0.0,71,0.00,,,0.00,WUHU216DAVISVP2,2013-05-03 03:35:00,
2013-05-02 23:40:00,46.6,38.5,30.48,SSE,153,0.0,0.0,73,0.00,,,0.00,WUHU216DAVISVP2,2013-05-03 03:40:00,
2013-05-02 23:45:00,46.3,38.2,30.48,SSE,153,0.0,0.0,73,0.00,,,0.00,WUHU216DAVISVP2,2013-05-03 03:45:00,
2013-05-02 23:50:00,45.9,37.5,30.48,SSE,153,0.0,0.0,72,0.00,,,0.00,WUHU216DAVISVP2,2013-05-03 03:50:00,
2013-05-02 23:55:00,45.6,37.5,30.48,SSE,153,0.0,0.0,73,0.00,,,0.00,WUHU216DAVISVP2,2013-05-03 03:55:00,